Time,TemperatureF,DewpointF,PressureIn,WindDirection,WindDirectionDegrees,WindSpeedMPH,WindSpeedGustMPH,Humidity,HourlyPrecipIn,Conditions,Clouds,dailyrainin,SoftwareType,DateUTC
2013-09-20 01:03:00,55.0,-99.9,29.97,SW,225,0.0,5.0,0,-99.99,,,0.00,,2013-09-20 05:03:00,
2013-09-20 01:43:00,55.0,-99.9,29.97,SW,225,0.0,5.0,0,-99.99,,,0.00,,2013-09-20 05:43:00,
2013-09-20 01:53:00,55.0,-99.9,29.97,SW,225,0.0,5.0,0,-99.99,,,0.00,,2013-09-20 05:53:00,
2013-09-20 02:52:00,55.0,-99.9,29.98,SSW,202,0.0,4.0,0,-99.99,,,0.00,,2013-09-20 06:52:00,
2013-09-20 03:02:00,55.0,-99.9,29.98,SSW,202,0.0,4.0,0,-99.99,,,0.00,,2013-09-20 07:02:00,
2013-09-20 03:42:00,55.0,-99.9,29.98,SSW,202,0.0,6.0,0,-99.99,,,0.00,,2013-09-20 07:42:00,
2013-09-20 03:53:00,55.0,-99.9,29.98,SSW,202,0.0,6.0,0,-99.99,,,0.00,,2013-09-20 07:53:00,
2013-09-20 04:02:00,55.0,-99.9,29.98,SSW,202,0.0,6.0,0,-99.99,,,0.00,,2013-09-20 08:02:00,
2013-09-20 04:42:00,52.0,-99.9,29.99,SSW,202,0.0,3.0,0,-99.99,,,0.00,,2013-09-20 08:42:00,
2013-09-20 04:52:00,52.0,-99.9,29.99,SSW,202,0.0,3.0,0,-99.99,,,0.00,,2013-09-20 08:52:00,
2013-09-20 05:01:00,52.0,-99.9,29.99,SSW,202,0.0,3.0,0,-99.99,,,0.00,,2013-09-20 09:01:00,
2013-09-20 05:03:00,54.0,-99.9,29.99,SW,225,3.0,6.0,0,-99.99,,,0.00,,2013-09-20 09:03:00,
2013-09-20 05:44:00,54.0,-99.9,29.99,SW,225,3.0,6.0,0,-99.99,,,0.00,,2013-09-20 09:44:00,
2013-09-20 05:54:00,54.0,-99.9,29.99,SW,225,3.0,6.0,0,-99.99,,,0.00,,2013-09-20 09:54:00,
2013-09-20 06:03:00,53.0,-99.9,30.01,SSW,202,0.0,4.0,0,-99.99,,,0.00,,2013-09-20 10:03:00,
2013-09-20 06:42:00,53.0,-99.9,30.01,SSW,202,0.0,4.0,0,-99.99,,,0.00,,2013-09-20 10:42:00,
2013-09-20 06:53:00,53.0,-99.9,30.01,SSW,202,0.0,4.0,0,-99.99,,,0.00,,2013-09-20 10:53:00,
2013-09-20 07:42:00,53.0,-99.9,30.02,East,90,0.0,0.0,0,-99.99,,,0.00,,2013-09-20 11:42:00,
2013-09-20 07:52:00,53.0,-99.9,30.02,East,90,0.0,0.0,0,-99.99,,,0.00,,2013-09-20 11:52:00,
2013-09-20 08:02:00,53.0,-99.9,30.02,East,90,0.0,0.0,0,-99.99,,,0.00,,2013-09-20 12:02:00,
2013-09-20 08:43:00,55.0,-99.9,30.03,WNW,292,0.0,5.0,0,-99.99,,,0.00,,2013-09-20 12:43:00,
2013-09-20 08:52:00,55.0,-99.9,30.03,WNW,292,0.0,5.0,0,-99.99,,,0.00,,2013-09-20 12:52:00,
2013-09-20 09:02:00,55.0,-99.9,30.03,WNW,292,0.0,5.0,0,-99.99,,,0.00,,2013-09-20 13:02:00,
2013-09-20 09:42:00,58.0,-99.9,30.03,West,270,3.0,6.0,0,-99.99,,,0.00,,2013-09-20 13:42:00,
2013-09-20 09:53:00,58.0,-99.9,30.03,West,270,3.0,6.0,0,-99.99,,,0.00,,2013-09-20 13:53:00,
2013-09-20 10:02:00,58.0,-99.9,30.03,West,270,3.0,6.0,0,-99.99,,,0.00,,2013-09-20 14:02:00,
2013-09-20 10:42:00,60.0,-99.9,30.03,NNW,337,2.0,4.0,0,-99.99,,,0.00,,2013-09-20 14:42:00,
2013-09-20 10:52:00,60.0,-99.9,30.03,NNW,337,2.0,4.0,0,-99.99,,,0.00,,2013-09-20 14:52:00,
2013-09-20 11:02:00,60.0,-99.9,30.03,NNW,337,2.0,4.0,0,-99.99,,,0.00,,2013-09-20 15:02:00,
2013-09-20 11:03:00,61.0,-99.9,30.01,NNW,337,0.0,2.0,0,-99.99,,,0.00,,2013-09-20 15:03:00,
2013-09-20 11:44:00,61.0,-99.9,30.01,NNW,337,0.0,2.0,0,-99.99,,,0.00,,2013-09-20 15:44:00,
2013-09-20 11:54:00,61.0,-99.9,30.01,NNW,337,0.0,2.0,0,-99.99,,,0.00,,2013-09-20 15:54:00,
2013-09-20 12:03:00,63.0,-99.9,30.01,SSE,157,0.0,5.0,0,-99.99,,,0.00,,2013-09-20 16:03:00,
2013-09-20 12:43:00,63.0,-99.9,30.01,SSE,157,0.0,5.0,0,-99.99,,,0.00,,2013-09-20 16:43:00,
2013-09-20 12:53:00,63.0,-99.9,30.01,SSE,157,0.0,5.0,0,-99.99,,,0.00,,2013-09-20 16:53:00,
2013-09-20 13:43:00,62.0,-99.9,30.00,WSW,247,5.0,8.0,0,-99.99,,,0.00,,2013-09-20 17:43:00,
2013-09-20 13:53:00,62.0,-99.9,30.00,WSW,247,5.0,8.0,0,-99.99,,,0.00,,2013-09-20 17:53:00,
2013-09-20 14:02:00,62.0,-99.9,30.00,WSW,247,5.0,8.0,0,-99.99,,,0.00,,2013-09-20 18:02:00,
2013-09-20 14:52:00,62.0,-99.9,30.00,SSW,202,1.0,7.0,0,-99.99,,,0.00,,2013-09-20 18:52:00,
2013-09-20 15:02:00,62.0,-99.9,30.00,SSW,202,1.0,7.0,0,-99.99,,,0.00,,2013-09-20 19:02:00,
2013-09-20 15:03:00,63.0,-99.9,29.98,SSW,202,4.0,10.0,0,-99.99,,,0.00,,2013-09-20 19:03:00,
2013-09-20 15:42:00,63.0,-99.9,29.98,SSW,202,4.0,10.0,0,-99.99,,,0.00,,2013-09-20 19:42:00,
2013-09-20 15:53:00,63.0,-99.9,29.98,SSW,202,4.0,10.0,0,-99.99,,,0.00,,2013-09-20 19:53:00,
2013-09-20 16:42:00,64.0,-99.9,29.96,South,180,2.0,10.0,0,-99.99,,,0.00,,2013-09-20 20:42:00,
2013-09-20 16:52:00,64.0,-99.9,29.96,South,180,2.0,10.0,0,-99.99,,,0.00,,2013-09-20 20:52:00,
2013-09-20 17:02:00,64.0,-99.9,29.96,South,180,2.0,10.0,0,-99.99,,,0.00,,2013-09-20 21:02:00,
2013-09-20 17:03:00,62.0,-99.9,29.97,SE,135,0.0,11.0,0,-99.99,,,0.00,,2013-09-20 21:03:00,
2013-09-20 17:45:00,62.0,-99.9,29.97,SE,135,0.0,11.0,0,-99.99,,,0.00,,2013-09-20 21:45:00,
2013-09-20 17:55:00,62.0,-99.9,29.97,SE,135,0.0,11.0,0,-99.99,,,0.00,,2013-09-20 21:55:00,
2013-09-20 18:44:00,61.0,-99.9,29.97,East,90,1.0,7.0,0,-99.99,,,0.00,,2013-09-20 22:44:00,
2013-09-20 18:53:00,61.0,-99.9,29.97,East,90,1.0,7.0,0,-99.99,,,0.00,,2013-09-20 22:53:00,
2013-09-20 19:02:00,61.0,-99.9,29.97,East,90,1.0,7.0,0,-99.99,,,0.00,,2013-09-20 23:02:00,
2013-09-20 19:53:00,59.0,-99.9,29.96,SSW,202,4.0,10.0,0,-99.99,,,0.00,,2013-09-20 23:53:00,
2013-09-20 20:02:00,59.0,-99.9,29.96,SSW,202,4.0,10.0,0,-99.99,,,0.00,,2013-09-21 00:02:00,
2013-09-20 20:42:00,57.0,-99.9,29.97,SSW,202,0.0,11.0,0,-99.99,,,0.00,,2013-09-21 00:42:00,
2013-09-20 20:52:00,57.0,-99.9,29.97,SSW,202,0.0,11.0,0,-99.99,,,0.00,,2013-09-21 00:52:00,
2013-09-20 21:02:00,57.0,-99.9,29.97,SSW,202,0.0,11.0,0,-99.99,,,0.00,,2013-09-21 01:02:00,
2013-09-20 21:03:00,56.0,-99.9,29.97,West,270,1.0,14.0,0,-99.99,,,0.00,,2013-09-21 01:03:00,
2013-09-20 21:52:00,56.0,-99.9,29.97,West,270,1.0,14.0,0,-99.99,,,0.00,,2013-09-21 01:52:00,
2013-09-20 22:42:00,55.0,-99.9,29.96,South,180,7.0,14.0,0,-99.99,,,0.00,,2013-09-21 02:42:00,
2013-09-20 22:52:00,55.0,-99.9,29.96,South,180,7.0,14.0,0,-99.99,,,0.00,,2013-09-21 02:52:00,
2013-09-20 23:02:00,55.0,-99.9,29.96,South,180,7.0,14.0,0,-99.99,,,0.00,,2013-09-21 03:02:00,
2013-09-20 23:03:00,55.0,-99.9,29.95,SW,225,1.0,13.0,0,-99.99,,,0.00,,2013-09-21 03:03:00,
2013-09-20 23:44:00,55.0,-99.9,29.95,SW,225,1.0,13.0,0,-99.99,,,0.00,,2013-09-21 03:44:00,
2013-09-20 23:55:00,55.0,-99.9,29.95,SW,225,1.0,13.0,0,-99.99,,,0.00,,2013-09-21 03:55:00,